Regional Weather Roundup
Issued by NWS

Home | Current Version | Previous Version | Graphics & Text | Print | Product List | Glossary On
Versions: 1 2 3 4 5 6 7 8 9 10 11 12 13 14 15 16 17 18 19 20 21 22 23 24 25 26 27 28 29 30 31 32 33 34 35 36 37 38 39 40 41 42 43 44 45 46 47 48 49 50
000
ASUS43 KOAX 282102
RWRNE

WEATHER ROUNDUP FOR NEBRASKA
NATIONAL WEATHER SERVICE OMAHA NE
400 PM CDT THU AUG 28 2014

NOTES: SATELLITE DATA IS BEING USED TO AUGMENT CLOUD COVER ABOVE
       12000 FEET.
       "FAIR" INDICATES FEW OR NO CLOUDS BELOW 12,000 FEET WITH NO
       SIGNIFICANT WEATHER AND/OR OBSTRUCTIONS TO VISIBILITY.

  * THESE STATIONS DO NOT REPORT WEATHER SUCH AS RAIN...SNOW OR FOG.

NEZ001>004-019>022-054>056-282200-
NEBRASKA PANHANDLE

CITY           SKY/WX    TMP DP  RH WIND       PRES   REMARKS
ALLIANCE       LGT RAIN  63  61  93 N13       30.04S
CHADRON        LGT RAIN  66  57  72 W8        30.02S
KIMBALL        RAIN      59  58  96 NW8       30.09F
SIDNEY         CLOUDY    67  57  70 NW14      30.07F
$$

NEZ057>060-069>072-079>082-282200-
SOUTHWEST NEBRASKA

CITY           SKY/WX    TMP DP  RH WIND       PRES   REMARKS
NORTH PLATTE   MOSUNNY   78  62  57 W10       29.90F
IMPERIAL       MOSUNNY   78  62  57 NW16      29.95F
LEXINGTON      MOSUNNY   82  68  62 S7        29.88F
MCCOOK         PTSUNNY   84  61  45 W9        29.90F
OGALLALA       MOSUNNY   76  60  58 W14G24    29.95F
$$

NEZ005>010-023>029-035>040-094-282200-
NORTH CENTRAL NEBRASKA

CITY           SKY/WX    TMP DP  RH WIND       PRES   REMARKS
VALENTINE      CLOUDY    76  65  68 N8        29.90S
AINSWORTH      PTSUNNY   78  64  62 CALM      29.87F
BROKEN BOW     MOSUNNY   81  65  58 W3        29.87F
O`NEILL        MOSUNNY   80  69  69 S6        29.85F
ORD            MOSUNNY   80  67  64 S7        29.85F
THEDFORD       PTSUNNY   82  62  51 W3        29.89F
$$

NEZ041-046>049-061>064-073>077-083>087-282200-
SOUTH CENTRAL NEBRASKA

CITY           SKY/WX    TMP DP  RH WIND       PRES   REMARKS
GRAND ISLAND   PTSUNNY   79  69  71 S9        29.87F
AURORA         CLOUDY    78  71  79 SW5       29.87F
HASTINGS       PTSUNNY   78  66  66 SW7       29.88F
HEBRON         CLOUDY    81  67  63 S14       29.88F
HOLDREGE       MOSUNNY   78  65  63 CALM      29.89F
KEARNEY *      MOSUNNY   77  70  78 S9        29.88F
YORK           CLOUDY    79 N/A N/A S13G18    29.86F
$$

NEZ011>018-030>034-042>045-282200-
NORTHEAST NEBRASKA

CITY           SKY/WX    TMP DP  RH WIND       PRES   REMARKS
NORFOLK        CLOUDY    78  70  76 S10       29.86F
ALBION         CLOUDY    77  68  73 S12       29.86F
BLAIR          PTSUNNY   81  71  73 S8        29.88F
FREMONT        CLOUDY    81  70  68 S7        29.87F
TEKAMAH        CLOUDY    80  73  79 SE8       29.87F
WAYNE          CLOUDY    78  73  82 S8        29.86F
$$

NEZ050>053-065>068-078-088>093-282200-
SOUTHEAST NEBRASKA

CITY           SKY/WX    TMP DP  RH WIND       PRES   REMARKS
LINCOLN        CLOUDY    80  68  66 S14       29.87F
OMAHA EPPLEY   PTSUNNY   82  69  64 S10       29.87F
BEATRICE       CLOUDY    78  68  72 S12       29.88F
FALLS CITY     CLOUDY    86  75  69 S3        29.87F HX  95
NEBRASKA CITY  CLOUDY    79  73  81 S8        29.89F
PLATTSMOUTH    CLOUDY    82  71  70 S10       29.89S
$$

NEZ044-045-051>053-067-282200-
OMAHA AREA

CITY           SKY/WX    TMP DP  RH WIND       PRES   REMARKS
OMAHA EPPLEY   PTSUNNY   82  69  64 S10       29.87F
BLAIR          PTSUNNY   81  71  73 S8        29.88F
FREMONT        CLOUDY    81  70  68 S7        29.87F
MILLARD        CLOUDY    82  72  70 S8        29.87F
OFFUTT AFB     PTSUNNY   82  76  84 S7        29.87F
PLATTSMOUTH    CLOUDY    82  71  70 S10       29.89S
WAHOO          FAIR      80  70  70 S9        29.87F
$$


USA.gov is the U.S. government's official web portal to all federal, state and local government web resources and services.